GFSNW_sfc_rhum_177.txt.gz
RH
60 64 67 68 71 78 88 78 89 70 66 98 75 74 52 46 34 30 34 34 31 32 29 28 28 28 22 14 16 22 20 28 40 23 15 13 16 19 20 44 41 30 43 61
58 58 60 68 71 73 91 83 76 74 85 95 84 52 48 40 40 38 38 41 36 32 40 53 41 34 24 21 22 23 21 32 42 31 22 16 20 19 19 21 26 36 63 59
59 59 57 58 70 69 78 92 100 90 98 84 74 60 55 57 38 42 40 44 43 46 56 56 70 47 29 24 23 53 42 34 36 57 40 40 55 41 26 26 52 46 47 36
57 58 65 61 62 68 66 95 87 70 98 94 89 83 59 49 48 36 48 60 45 58 94 72 69 50 34 28 34 33 34 46 39 30 26 25 27 33 28 30 30 39 48 28
56 56 58 66 63 67 58 96 90 90 82 70 74 82 87 70 57 56 91 70 54 49 96 75 60 47 46 42 31 32 31 52 48 65 32 29 42 31 31 28 27 25 23 23
58 56 56 58 64 68 70 51 77 96 84 59 74 80 74 61 53 73 79 95 98 96 80 61 67 60 55 52 48 49 41 51 57 60 39 39 52 56 35 27 22 23 30 24
61 60 59 59 59 66 61 62 68 84 80 51 46 39 40 54 55 76 54 58 93 54 65 59 68 62 54 51 44 38 49 50 58 75 50 86 50 26 23 24 23 20 20 18
59 60 65 65 61 59 57 75 90 88 84 43 38 37 36 35 42 50 55 60 55 58 95 100 88 68 62 54 44 41 37 48 68 88 52 38 29 22 24 28 30 19 20 23
66 64 64 64 66 62 55 51 84 97 95 60 34 38 33 46 51 48 43 38 46 76 100 100 92 72 46 45 42 29 30 37 66 66 82 65 32 27 24 24 36 20 25 39
68 68 65 66 65 65 57 45 65 95 100 46 44 51 57 52 53 62 58 58 60 73 99 97 74 63 41 58 46 56 56 59 86 67 68 52 25 22 28 47 39 37 38 36
70 68 68 67 68 68 66 50 47 89 99 60 49 50 69 55 55 69 70 75 75 97 99 86 64 60 46 51 35 48 45 66 78 78 85 75 22 21 36 30 38 34 38 41
74 71 69 67 71 71 71 74 42 49 90 60 50 54 51 54 50 62 72 84 80 82 85 84 89 73 58 66 74 31 48 36 55 68 61 52 35 32 27 31 38 38 36 36
75 73 67 67 71 70 74 75 64 77 92 63 48 43 35 34 40 43 81 63 54 72 86 98 98 94 67 87 58 43 36 28 42 40 32 28 27 27 24 26 36 31 38 49
76 74 74 71 70 70 70 87 69 81 81 90 51 27 34 29 33 36 41 54 58 68 85 94 92 93 57 54 47 50 42 41 48 51 38 32 28 30 34 34 30 30 38 48
76 72 71 69 68 68 76 81 85 79 90 86 70 46 36 34 37 43 47 63 74 84 88 93 88 71 75 47 41 43 29 35 51 65 38 36 34 31 31 33 30 28 28 36
77 72 70 69 66 67 84 100 67 62 82 95 73 34 39 38 48 53 61 63 78 95 87 87 71 68 75 56 46 29 26 25 25 32 28 30 30 26 24 26 29 27 26 27
77 75 72 69 66 74 79 80 88 61 74 90 69 41 38 48 51 74 98 94 99 98 99 98 80 84 55 62 61 36 28 25 26 24 25 30 25 26 26 25 23 29 27 34
76 74 71 67 71 78 87 76 79 68 74 55 70 53 44 66 92 99 99 100 99 99 98 87 64 47 52 66 35 26 22 20 23 24 24 26 25 24 27 26 27 33 34 33
75 71 66 77 90 99 92 78 80 88 99 85 64 60 71 83 87 99 99 98 100 84 78 60 54 63 72 47 33 30 30 36 34 28 26 24 29 27 28 27 28 33 39 38
70 79 100 100 78 71 76 86 94 100 93 76 79 52 76 64 98 99 96 75 74 70 51 43 72 59 39 31 28 31 49 50 46 41 39 37 36 34 32 31 35 31 36 38
76 97 93 76 70 64 76 98 90 80 88 75 62 48 68 87 96 89 68 77 68 71 58 63 61 49 35 36 47 57 61 58 52 38 36 39 42 46 47 47 47 45 39 44
72 74 84 77 79 86 96 82 76 73 58 67 67 51 41 88 68 80 67 74 85 78 69 77 64 42 40 57 77 86 86 61 57 51 53 54 51 50 49 48 54 57 71 94
65 66 97 100 90 95 92 92 89 92 76 78 75 85 67 76 72 80 72 84 80 54 91 66 44 48 55 71 99 96 73 62 59 56 59 62 61 57 59 72 76 81 87 93
83 90 95 95 97 92 92 83 86 80 75 74 82 82 88 78 79 86 86 66 60 80 74 52 70 75 81 71 79 71 71 75 74 67 72 84 99 98 100 100 100 100 100 100
92 99 97 95 75 77 85 87 86 84 75 79 82 77 75 86 84 78 70 80 78 58 56 64 86 84 86 80 82 79 76 94 76 72 92 100 100 100 100 100 100 100 100 100
99 88 89 79 86 100 100 98 96 80 79 84 79 91 90 83 74 81 76 54 55 56 79 77 74 76 77 80 86 88 84 79 71 72 76 89 100 99 99 100 99 100 100 100
78 89 84 96 88 100 100 92 80 73 84 95 78 85 66 69 73 64 55 67 70 83 79 82 77 77 77 82 88 100 99 83 80 76 85 93 93 91 69 78 82 73 86 99

GFSNW_sfc_rhum_180.txt.gz
RH
66 68 68 69 70 75 83 67 88 67 72 96 74 77 58 52 40 34 33 34 35 40 40 40 37 33 26 16 19 24 21 35 45 30 21 19 21 26 26 47 45 46 63 60
57 58 60 67 71 72 90 77 67 70 75 95 85 56 51 43 41 39 40 42 37 38 51 68 54 42 31 26 26 32 30 43 47 45 31 23 23 34 45 44 49 83 86 77
59 59 57 57 67 70 70 87 100 91 91 71 71 65 58 56 40 42 43 45 44 49 58 51 64 64 41 37 36 55 44 38 46 66 47 39 46 38 36 45 71 82 66 48
63 62 63 61 58 67 66 77 80 55 98 92 74 66 58 56 52 39 39 77 64 63 75 66 67 58 58 44 43 44 48 60 45 40 36 35 37 34 37 40 43 83 73 48
58 57 56 63 62 63 62 94 80 59 63 54 57 62 71 79 66 48 58 68 71 95 99 96 93 72 88 83 57 56 44 60 58 72 46 40 47 40 39 35 35 34 33 34
59 56 55 55 62 68 70 51 47 78 64 57 64 66 52 48 53 74 57 59 74 73 87 88 76 76 60 67 77 76 72 98 74 76 52 50 68 55 41 35 28 27 34 28
59 58 58 58 58 64 55 54 85 92 81 54 46 35 34 41 44 56 66 66 92 69 54 63 55 68 62 58 58 54 66 67 81 89 64 93 51 30 29 34 31 27 26 24
64 61 62 65 61 59 54 50 87 94 85 45 39 36 34 31 33 45 51 67 68 64 75 99 96 79 71 58 50 50 49 63 75 82 77 54 37 26 26 38 42 39 28 24
69 69 64 64 67 65 57 47 52 91 98 64 39 44 59 61 54 52 40 32 54 61 100 99 94 86 56 52 41 34 42 52 74 76 75 70 36 24 24 31 55 35 32 45
71 72 67 62 62 63 60 53 64 78 93 49 45 53 65 54 61 75 57 70 63 67 98 90 81 66 46 61 49 44 66 78 87 85 85 54 28 25 29 58 45 34 34 35
73 73 69 63 64 68 65 54 53 80 93 58 49 46 60 67 78 80 70 74 77 87 94 78 71 71 63 53 47 47 50 82 78 73 76 79 72 39 82 45 33 50 56 47
75 74 72 65 65 67 68 70 45 54 88 67 55 48 44 48 48 71 74 82 77 96 95 95 89 79 84 89 77 56 63 47 65 64 59 69 62 45 35 30 33 34 37 34
76 75 73 66 65 67 72 71 70 83 90 72 61 54 41 34 38 44 80 66 56 68 77 95 87 81 66 88 69 62 68 71 76 48 32 27 27 26 26 26 32 37 36 33
75 76 75 73 68 67 71 86 73 84 81 87 52 30 34 27 32 35 43 51 51 59 73 86 84 80 56 93 90 90 91 58 47 50 38 34 29 28 29 27 28 31 31 40
75 75 73 73 71 68 73 74 71 79 96 97 71 48 36 33 39 45 48 54 60 72 85 90 84 57 66 57 63 68 38 34 52 64 38 43 45 32 28 29 32 34 36 33
76 76 74 70 70 68 74 95 54 71 87 100 77 35 37 35 37 41 46 53 68 85 99 81 71 57 75 93 90 36 26 25 27 35 30 30 34 30 25 25 24 24 27 31
77 76 74 70 72 73 72 76 85 81 86 99 73 41 44 40 37 54 70 67 87 88 95 89 75 68 78 92 83 53 32 28 25 24 26 31 25 26 22 23 22 29 23 25
76 76 72 75 73 70 73 56 64 71 84 72 79 52 44 50 76 90 89 99 99 100 99 90 78 70 82 99 51 29 23 24 31 32 31 29 24 22 22 22 25 29 29 32
74 72 75 70 71 79 59 78 79 79 92 97 72 61 76 68 81 98 100 100 100 94 97 83 93 93 76 48 36 30 29 46 46 44 42 35 30 26 23 24 26 30 30 34
77 65 78 100 82 78 84 96 100 96 85 80 79 48 77 68 82 98 100 99 98 93 75 52 70 66 42 34 31 39 57 57 58 66 57 44 36 33 32 30 31 31 33 36
54 86 95 85 78 81 81 91 88 81 87 67 58 54 72 70 85 93 82 75 69 69 61 57 64 56 40 45 61 68 79 79 69 65 59 56 49 48 49 51 56 61 65 70
69 76 81 72 77 83 86 78 67 69 70 52 67 59 51 63 72 99 66 77 79 73 68 76 64 64 57 66 74 83 89 86 62 52 59 60 57 61 58 67 67 77 86 96
64 72 92 98 81 92 85 78 67 85 71 96 87 91 70 78 77 76 72 77 77 54 84 66 85 77 64 68 96 82 82 68 67 62 64 71 80 89 92 80 81 92 97 98
92 88 91 92 95 87 88 92 96 89 80 72 74 97 97 76 78 86 84 68 63 72 67 63 84 80 80 78 78 74 76 84 85 74 84 98 98 99 100 100 100 100 100 100
88 89 95 96 92 84 85 82 85 78 76 73 76 72 72 84 89 77 68 73 71 55 56 90 87 79 78 78 79 85 89 95 86 82 94 99 99 100 100 100 100 100 100 100
99 98 91 83 93 100 99 98 97 70 75 76 80 87 83 80 69 73 70 56 50 81 98 87 78 76 80 77 78 82 92 88 83 83 84 95 97 98 99 99 99 100 100 100
84 93 84 95 91 99 100 97 81 68 75 94 78 86 69 64 83 79 60 81 98 85 82 91 97 99 98 87 88 100 89 91 88 84 93 94 96 96 80 82 86 84 94 98

GFSNW_sfc_rhum_183.txt.gz
RH
77 72 71 70 67 72 84 88 97 84 84 99 95 96 64 60 48 44 47 47 51 53 51 54 51 50 42 33 37 45 37 44 56 41 27 24 26 31 33 77 90 93 98 86
68 67 64 66 72 72 97 94 87 82 87 100 98 75 66 56 56 54 50 54 51 50 60 71 63 60 49 48 51 56 46 64 63 52 45 35 34 29 40 51 70 96 98 89
62 62 60 59 70 71 88 98 98 96 98 90 92 89 76 69 48 47 42 45 49 65 75 66 74 64 50 46 51 65 64 57 62 85 66 52 55 43 38 46 90 86 85 84
64 64 64 62 59 67 87 92 92 78 98 95 93 84 76 79 75 52 48 58 62 70 96 98 98 80 89 70 55 58 59 98 83 72 61 47 47 46 44 46 48 82 83 74
66 63 60 68 62 63 88 97 97 85 88 71 74 73 76 68 55 53 58 70 78 95 99 83 91 93 83 97 76 73 81 92 80 88 68 60 60 55 52 48 44 44 43 48
60 59 59 59 65 70 88 80 74 91 80 75 83 82 64 57 52 73 68 85 95 98 88 97 90 90 90 83 96 89 84 99 96 94 82 69 77 65 56 50 42 39 46 37
64 62 61 61 60 66 88 83 92 98 97 79 70 53 48 47 47 60 46 46 80 62 71 78 82 80 78 71 74 73 80 84 87 94 83 94 63 46 45 51 44 36 34 41
63 66 69 68 64 60 82 79 91 98 96 70 66 55 50 62 65 68 61 55 60 69 86 99 96 86 77 71 64 74 66 82 88 94 79 67 53 38 40 54 68 48 57 51
70 73 70 69 67 66 81 81 79 91 98 83 45 67 58 75 80 87 74 55 77 78 99 99 95 72 67 74 67 59 62 69 88 86 91 79 53 37 33 44 73 44 50 60
72 74 73 70 64 65 83 86 77 87 97 68 62 75 83 70 83 95 78 87 85 77 99 97 94 90 56 76 72 66 72 91 95 94 93 76 62 64 44 75 78 79 66 71
73 74 74 74 66 62 78 85 78 92 97 77 66 64 74 72 75 96 93 92 95 98 98 95 95 96 81 72 67 71 74 84 97 99 98 95 72 72 79 76 81 93 67 56
75 76 76 74 65 64 71 96 70 71 92 89 78 71 64 66 65 76 84 86 86 90 98 95 97 84 86 89 96 63 94 87 94 95 91 75 80 66 70 67 64 66 69 58
76 76 76 72 67 64 72 94 90 92 96 84 77 72 58 52 54 50 83 82 73 79 91 99 98 99 94 85 79 86 68 83 99 83 73 65 73 60 50 48 44 50 52 53
75 74 75 75 70 65 67 96 94 94 95 99 68 44 54 43 48 52 53 54 53 67 77 96 90 90 71 92 78 76 66 87 93 97 79 51 51 48 48 43 41 43 46 56
77 73 73 72 70 68 80 94 93 93 95 98 80 61 53 46 47 49 52 70 74 83 89 92 95 76 77 66 70 78 64 74 99 88 55 56 53 46 47 43 42 44 46 47
80 72 69 71 73 71 94 94 93 90 95 99 98 67 53 45 54 60 55 62 80 90 96 97 90 64 83 98 96 50 49 45 50 53 45 43 45 40 35 36 35 32 36 41
79 73 73 78 76 94 93 92 92 83 97 97 98 82 58 55 60 75 79 74 87 92 90 95 82 78 86 97 92 53 49 48 49 50 53 58 46 44 33 33 30 37 34 33
74 74 78 76 74 78 94 76 68 81 94 92 98 86 66 65 95 98 98 97 96 99 98 96 88 80 92 98 63 55 50 48 60 60 58 59 55 48 34 30 32 37 39 41
69 73 73 85 90 96 82 73 78 93 93 98 98 90 93 78 93 98 99 99 99 96 98 94 90 95 96 77 69 61 78 80 76 68 70 67 62 54 48 34 38 40 41 44
74 81 96 97 92 80 83 93 95 99 98 99 98 70 81 73 90 98 98 99 98 98 94 93 98 90 69 55 82 86 88 86 80 90 92 85 80 70 58 49 48 64 72 73
86 98 97 95 79 92 98 99 99 96 97 91 85 70 79 78 94 95 93 98 95 95 89 94 93 89 92 79 84 84 82 82 80 65 69 81 88 92 87 83 90 87 85 92
78 87 91 91 95 97 97 93 88 88 81 72 87 80 70 82 83 97 95 93 94 90 91 93 92 97 86 84 91 93 93 84 72 68 75 80 85 95 87 86 88 94 98 99
81 91 96 98 93 99 97 95 88 94 97 98 99 98 99 98 98 99 89 90 91 92 93 93 98 84 83 89 96 86 83 83 83 78 82 92 95 95 99 97 97 99 98 99
100 99 96 98 97 96 94 92 92 95 100 97 94 99 98 95 97 98 94 86 90 90 88 85 99 84 80 76 84 82 83 92 92 90 95 98 98 99 99 99 100 99 99 100
99 98 97 98 93 99 99 97 96 94 91 94 95 94 94 96 95 94 87 88 89 81 94 99 98 89 88 79 75 79 83 94 93 91 95 99 98 99 99 99 99 99 99 99
99 96 98 96 96 96 96 97 98 91 93 92 97 97 88 91 86 86 82 79 83 98 99 99 96 98 98 96 88 88 92 86 96 92 95 96 94 96 99 98 99 99 99 99
91 97 92 85 93 95 98 96 96 91 88 97 95 95 88 94 96 95 90 98 99 100 98 96 97 98 95 95 94 99 93 90 83 93 94 97 97 98 94 91 95 95 99 98

GFSNW_sfc_rhum_189.txt.gz
RH
89 88 87 85 81 78 76 83 96 82 81 99 99 99 78 83 87 81 85 72 66 65 63 79 74 66 54 45 55 68 58 65 79 61 41 37 42 45 43 62 61 49 68 78
88 88 86 82 76 74 96 95 85 86 91 99 99 96 94 92 96 91 94 83 64 59 68 91 81 71 56 54 58 68 62 87 91 77 62 48 51 45 45 50 71 80 96 84
86 82 76 74 72 74 92 98 99 95 99 97 99 99 96 96 71 61 56 60 62 72 82 73 88 80 64 64 66 62 65 89 96 94 87 73 73 62 59 61 95 92 92 76
78 73 70 71 71 71 85 93 94 83 99 97 97 95 92 83 74 66 54 63 59 75 97 85 77 69 68 55 67 72 85 96 80 77 66 62 65 69 69 75 72 88 85 96
74 71 68 68 71 73 84 97 97 88 86 74 81 78 82 72 62 63 70 72 67 71 95 79 85 73 80 78 66 89 77 88 82 93 69 67 80 73 72 77 68 70 64 60
70 70 67 70 68 69 90 86 84 88 80 78 82 81 69 67 72 68 64 72 79 80 65 73 73 73 73 70 77 80 82 87 88 91 64 70 85 85 87 72 62 65 77 57
70 68 65 70 72 74 89 94 94 95 91 84 74 70 68 68 67 78 63 68 81 67 68 79 78 78 79 77 76 77 86 90 90 92 77 95 70 56 63 67 58 60 55 52
67 67 66 65 66 73 83 85 93 97 99 79 74 74 69 62 59 75 73 69 68 78 91 97 91 62 66 64 63 62 76 91 96 96 76 72 60 39 44 69 62 72 68 65
73 74 68 66 64 72 84 85 88 95 96 79 63 68 62 80 92 84 82 65 69 86 99 99 100 88 55 63 69 53 57 92 98 91 96 89 57 56 59 62 74 78 86 83
76 74 72 70 69 69 85 91 84 93 98 83 76 77 86 81 87 95 84 83 85 90 98 96 94 92 83 89 69 52 70 83 95 92 96 91 66 69 59 93 72 84 83 83
76 75 74 70 65 66 82 94 89 93 97 86 77 72 82 86 88 97 83 85 90 96 94 99 95 93 71 75 58 60 76 88 96 89 99 93 89 90 97 97 82 83 82 79
77 76 75 72 68 65 80 95 88 90 95 86 81 75 70 72 73 90 93 83 90 91 96 96 96 94 85 84 86 65 89 83 96 92 92 70 95 97 81 74 80 79 80 69
77 77 72 71 71 69 78 95 95 95 97 95 93 72 56 64 67 65 95 91 78 88 87 96 95 98 91 96 76 70 65 57 94 95 78 98 95 89 76 64 72 72 73 75
77 77 76 76 72 71 84 96 93 95 96 95 83 58 66 53 61 75 70 68 79 82 96 90 96 98 82 95 83 82 69 75 94 97 93 98 75 66 65 70 66 62 62 67
77 75 74 71 73 73 90 97 96 94 94 98 93 73 55 52 54 66 78 86 90 97 94 97 95 92 89 75 72 77 65 95 98 92 78 90 66 54 57 54 54 50 51 57
81 73 70 68 64 82 94 97 88 97 96 99 99 79 80 65 68 71 71 73 84 96 96 97 91 77 87 97 98 53 50 53 56 85 79 76 62 60 61 68 66 61 58 53
85 86 82 73 68 91 86 83 82 91 96 97 91 92 73 66 70 88 90 88 94 94 94 92 75 79 84 94 84 53 45 48 77 82 82 83 78 90 82 81 74 69 64 52
85 89 79 71 72 79 92 89 80 92 95 98 100 91 85 71 87 97 99 99 96 96 93 93 91 84 91 95 61 54 58 79 80 77 70 76 79 78 88 82 74 61 50 46
83 75 73 89 95 98 91 74 77 96 91 98 98 92 94 80 91 96 98 99 99 94 99 96 97 96 96 78 72 88 83 96 94 80 78 78 81 82 87 89 90 93 90 87
75 84 92 97 94 74 80 90 89 100 98 99 97 81 90 76 88 98 99 99 98 98 90 94 97 92 68 70 91 84 95 89 86 82 82 86 86 94 93 93 94 98 98 98
89 98 96 88 80 93 98 99 98 97 97 94 89 90 94 96 97 97 98 97 97 97 98 97 96 95 99 85 94 94 95 93 91 87 88 91 90 95 94 95 94 93 94 94
84 89 90 96 98 99 98 96 95 96 84 86 98 92 97 98 99 99 97 95 95 92 98 98 97 96 83 79 82 82 78 74 77 74 89 91 88 92 95 97 98 97 98 98
92 96 99 91 93 98 98 97 94 97 98 98 99 98 99 100 100 99 98 98 94 94 96 97 97 94 87 82 90 78 69 72 80 83 84 88 92 88 94 97 97 98 99 99
98 97 99 94 97 98 94 95 94 94 99 98 98 98 99 95 99 98 98 90 94 95 94 96 98 98 99 94 90 91 90 89 84 91 97 96 92 96 95 98 98 99 99 99
90 98 98 99 93 97 96 96 99 97 97 98 96 98 99 98 98 96 91 88 96 97 97 99 98 98 99 97 91 94 97 93 88 89 93 95 97 96 98 95 94 98 99 99
97 96 96 92 97 97 96 97 93 88 94 97 99 99 98 95 95 91 92 83 96 98 99 98 96 97 98 99 98 97 97 96 90 87 83 85 93 98 98 98 96 99 98 99
93 88 95 96 98 97 96 94 93 86 96 100 99 98 92 97 98 98 97 98 98 99 99 100 99 98 98 99 99 98 97 96 94 90 89 89 89 95 94 98 94 95 94 98

GFSNW_sfc_rhum_192.txt.gz
RH
94 93 92 91 89 88 83 96 99 88 83 98 99 99 80 86 88 86 95 95 98 99 99 92 75 70 58 53 56 64 54 68 78 62 49 50 55 60 58 79 78 63 68 77
93 92 90 89 87 80 97 97 95 92 93 99 99 97 96 95 96 96 98 99 97 94 87 88 86 76 61 56 57 75 71 88 93 69 47 52 69 65 59 58 63 92 97 91
92 90 88 86 84 86 93 98 99 98 99 97 99 100 99 99 90 96 91 83 62 68 81 72 86 74 56 55 54 55 68 85 95 92 75 71 87 74 65 64 84 71 72 66
89 87 85 82 80 76 80 93 93 85 99 99 99 99 97 84 83 70 52 62 61 71 95 87 75 67 64 58 56 71 77 88 79 73 70 66 72 67 65 72 68 84 72 67
86 83 78 74 72 72 81 97 95 87 86 77 97 93 92 89 78 64 66 69 65 70 90 78 85 78 80 77 57 68 82 84 76 93 71 70 78 68 66 59 58 62 70 93
79 72 70 73 74 69 92 87 85 88 82 78 84 84 73 68 67 67 64 68 78 77 71 74 78 79 79 76 80 74 76 84 85 89 63 68 87 69 62 48 53 58 72 64
74 71 71 70 72 74 88 92 93 94 92 81 73 64 68 69 70 70 63 65 77 70 70 81 73 82 75 70 68 64 84 83 83 91 79 94 49 48 58 68 58 64 66 57
72 68 71 74 75 71 84 86 92 96 96 76 75 76 71 61 58 65 67 65 68 77 88 99 89 59 52 58 65 72 77 94 95 94 77 66 58 62 82 84 81 60 68 68
75 72 68 67 70 69 83 88 91 93 92 74 64 65 63 77 86 81 77 70 69 83 99 96 99 86 52 62 70 57 49 85 96 96 94 92 93 85 81 78 82 78 86 88
75 71 69 67 68 71 86 97 89 93 97 86 74 77 76 82 88 95 81 77 82 90 96 99 96 88 91 96 79 63 55 85 97 94 96 85 90 78 93 96 95 93 88 90
75 73 70 72 70 78 85 97 93 92 96 84 78 74 83 87 87 95 81 83 91 98 98 99 97 98 73 88 61 55 59 88 97 92 98 95 62 80 96 99 98 94 80 82
79 74 71 73 67 74 81 95 91 91 95 81 83 75 68 66 66 86 93 80 86 91 96 97 97 95 86 78 96 51 84 86 92 90 86 57 65 98 95 96 94 81 83 73
80 78 71 72 69 70 80 96 97 96 97 90 89 72 63 72 72 69 94 93 77 87 87 96 97 100 92 96 75 70 58 61 90 79 67 88 86 78 87 62 62 62 70 73
77 77 76 74 72 70 82 96 97 95 96 94 81 62 70 61 67 75 69 67 83 83 96 97 98 97 81 95 82 81 68 69 79 87 81 86 67 66 67 68 63 64 62 63
76 76 70 70 70 73 92 97 96 94 92 98 93 75 64 58 66 78 83 84 89 97 93 98 95 89 88 78 73 74 59 82 97 94 81 96 88 73 73 78 74 79 82 75
77 77 75 71 73 81 94 97 91 96 92 98 99 77 78 73 72 74 85 90 93 96 97 96 91 79 87 96 86 48 44 52 67 94 88 96 95 91 71 86 88 86 87 84
84 81 71 70 78 92 85 86 81 92 98 99 96 85 69 74 73 91 94 84 95 95 96 97 91 92 88 97 86 54 47 45 54 66 90 97 78 84 77 82 87 84 78 78
82 83 84 75 77 75 92 89 88 92 95 96 96 89 82 70 86 97 99 99 97 98 96 95 87 82 89 92 54 48 47 78 84 89 78 83 82 78 74 75 89 92 94 96
87 86 82 90 91 97 92 73 81 96 88 97 95 86 93 80 92 96 99 100 99 93 97 96 93 94 95 70 67 84 84 86 95 92 83 82 86 80 78 77 88 93 94 92
77 82 91 94 93 74 82 89 96 99 99 100 98 78 88 84 96 98 99 99 98 97 89 91 98 88 70 66 96 99 99 98 97 91 90 89 87 94 92 92 97 97 90 90
88 97 94 88 80 98 98 99 98 98 98 96 89 90 96 97 97 97 98 97 97 97 98 97 95 96 100 98 88 84 80 79 76 81 87 90 90 94 96 96 96 97 97 96
87 91 89 97 99 98 98 97 95 96 83 84 96 90 97 98 99 99 97 96 98 96 97 98 97 98 96 83 81 79 73 72 73 76 86 88 83 92 93 94 96 97 97 98
95 98 97 90 91 99 98 96 93 99 97 98 99 98 100 100 99 98 98 98 97 94 97 97 98 99 96 92 93 90 80 82 81 80 84 91 90 86 93 95 92 94 98 98
93 96 99 94 98 93 94 94 96 95 98 98 94 98 98 90 99 98 98 90 95 98 96 96 98 97 98 96 95 85 89 87 87 85 86 90 92 96 95 97 96 96 95 98
94 98 97 98 93 96 95 94 100 96 98 98 96 91 98 98 98 96 94 90 97 96 98 95 98 97 94 98 97 92 95 96 94 88 87 84 90 93 96 92 98 98 99 98
98 97 90 90 90 97 98 99 98 90 92 96 98 98 98 96 94 96 93 86 94 98 100 99 97 96 97 97 99 98 98 97 95 94 90 88 90 90 91 93 96 98 100 99
97 89 84 96 95 97 97 97 96 90 96 98 97 97 92 96 97 96 97 98 98 99 98 99 97 96 93 92 97 98 98 97 95 94 92 92 93 95 92 94 94 98 98 97

GFSNW_sfc_rhum_198.txt.gz
RH
98 98 99 98 98 95 94 99 100 96 97 99 100 99 88 75 73 63 63 67 69 88 78 70 61 63 63 50 53 60 60 55 60 41 27 24 29 40 63 80 68 57 70 77
98 98 98 98 95 88 98 99 99 98 97 100 100 97 95 91 93 76 87 95 95 89 79 83 67 69 53 44 44 51 41 43 49 31 24 31 30 24 23 27 32 59 74 63
98 98 97 95 94 93 97 99 100 100 98 97 98 100 100 100 92 95 95 95 87 78 74 64 79 68 60 44 39 54 55 51 56 56 36 28 33 27 24 30 60 59 59 43
96 96 95 95 94 92 96 99 100 94 100 100 99 96 98 98 98 95 93 93 72 71 90 64 59 49 46 40 40 43 48 63 45 36 32 31 33 32 32 33 33 50 56 40
94 94 92 93 91 88 98 100 100 99 99 97 100 100 98 92 98 90 92 77 59 60 75 58 68 49 51 53 35 39 37 56 43 70 39 34 43 36 36 36 37 44 51 57
92 93 93 93 87 84 99 98 94 96 99 98 99 98 94 94 91 85 65 67 72 70 58 46 44 42 43 42 45 39 41 56 60 64 37 42 59 53 33 37 49 62 78 78
92 92 90 85 81 79 95 94 93 94 97 87 86 75 78 73 68 64 52 48 54 46 40 38 35 36 34 34 34 32 43 40 52 72 45 70 34 24 56 72 48 44 91 70
84 82 81 78 75 74 60 62 64 83 77 50 59 56 55 53 51 51 50 42 38 40 39 51 49 24 27 26 26 28 34 48 69 66 40 30 24 57 62 61 54 92 97 80
79 81 78 70 70 67 55 62 55 53 77 49 40 48 46 48 45 50 44 50 47 47 55 68 59 33 22 24 31 28 35 65 77 63 71 62 30 30 31 35 74 80 100 97
80 76 72 69 68 65 52 62 71 44 75 41 44 40 47 42 43 37 40 45 52 48 71 70 51 40 41 48 32 24 40 58 64 58 66 44 24 32 41 93 93 96 96 97
73 74 72 70 70 69 51 68 68 49 52 44 52 44 41 44 38 49 54 53 59 67 78 62 51 51 34 41 27 28 32 42 45 46 69 65 40 40 90 90 96 83 94 94
76 72 76 74 69 64 52 52 60 57 47 40 54 46 43 37 29 32 52 37 55 57 69 76 58 51 42 44 55 24 45 46 65 72 57 42 40 95 80 92 100 97 98 92
77 75 73 75 70 67 50 50 60 53 50 36 34 31 36 45 44 36 50 39 34 52 51 65 57 63 38 56 36 35 29 29 51 56 39 65 63 54 71 94 90 83 92 80
78 76 73 77 71 68 59 53 63 55 50 68 28 38 42 37 43 46 41 39 48 48 49 58 64 59 37 55 52 52 41 44 58 70 66 57 60 76 77 71 72 89 72 65
75 76 75 75 79 76 70 62 59 59 54 71 43 44 44 44 44 46 48 51 51 47 63 74 69 42 52 43 42 43 32 55 78 75 49 87 75 60 67 87 78 71 76 72
78 74 72 75 81 75 57 90 58 60 62 81 67 39 46 43 52 53 54 52 52 55 76 65 51 44 78 74 52 34 31 30 34 59 51 65 72 71 85 70 67 72 78 80
79 76 76 79 72 54 54 58 59 76 68 79 64 32 34 44 52 60 65 60 64 64 79 71 53 55 85 79 65 40 35 35 44 50 64 94 81 84 61 64 61 76 78 82
79 78 77 74 72 70 56 64 80 71 62 56 69 47 44 52 65 84 75 84 82 83 72 74 67 64 78 80 41 38 47 70 94 92 84 96 94 67 63 61 62 63 79 93
79 78 74 62 53 62 54 76 83 81 75 80 66 66 84 62 77 89 96 96 94 72 85 74 69 73 82 52 45 42 85 92 87 70 85 72 66 63 69 68 69 67 75 86
77 55 72 100 60 77 79 72 84 86 82 72 70 50 77 71 76 86 93 84 88 87 66 68 81 61 44 44 48 75 78 67 68 70 73 76 72 73 78 76 72 73 74 75
50 73 83 71 78 69 82 96 89 82 80 60 54 55 76 69 89 87 73 82 78 84 94 87 74 74 99 80 69 61 64 67 63 64 67 69 72 77 79 78 78 80 80 86
67 73 72 85 88 87 85 82 70 70 56 52 58 61 80 81 84 86 76 81 83 80 82 88 81 85 66 60 64 64 66 68 68 64 64 66 66 67 70 68 67 74 82 94
75 78 88 86 83 90 90 83 70 79 68 68 80 84 71 97 97 89 83 94 82 67 91 71 80 83 72 74 82 71 64 67 65 63 59 58 60 56 59 60 59 70 77 89
82 83 84 85 87 78 72 66 70 74 77 73 73 75 74 72 88 81 96 70 77 84 76 68 81 71 75 82 86 79 70 72 73 66 63 59 62 76 88 100 96 99 96 100
80 84 85 86 68 72 76 78 78 67 68 69 78 75 74 81 90 80 78 87 77 61 73 83 82 81 83 80 89 86 85 95 88 79 81 100 99 98 98 100 99 86 89 96
78 78 82 74 85 94 96 92 91 70 71 68 81 84 86 81 72 78 75 71 64 86 92 94 98 95 91 86 78 80 84 81 78 72 73 71 88 90 90 92 89 85 88 95
72 81 75 84 82 91 94 88 76 66 82 92 76 81 66 72 81 77 67 89 97 97 82 83 81 81 84 87 86 90 87 71 66 62 65 72 73 72 58 60 65 66 63 88

GFSNW_sfc_rhum_201.txt.gz
RH
99 98 98 98 98 98 96 99 100 97 95 99 99 99 84 78 71 79 84 79 71 84 78 70 58 60 59 43 46 51 50 47 54 38 26 23 25 29 48 69 70 63 63 70
99 98 98 98 98 92 98 99 99 97 98 100 100 98 96 87 93 91 92 84 76 77 78 96 71 72 48 43 42 44 35 43 52 34 25 25 26 32 23 24 28 52 66 57
99 99 99 98 96 95 97 99 100 99 99 98 97 100 100 100 89 93 87 94 94 92 85 67 76 81 56 42 37 50 44 40 47 54 36 27 31 22 18 22 49 46 49 34
99 99 99 98 96 94 97 99 99 89 99 100 99 96 97 98 98 94 94 97 76 75 98 73 68 58 85 57 40 42 40 56 44 34 28 24 24 23 24 26 27 41 46 28
98 97 96 95 95 92 98 100 99 99 100 96 100 100 99 98 98 95 96 92 63 70 83 58 64 46 47 45 32 36 34 52 43 66 33 29 35 28 26 25 27 27 34 62
94 93 93 93 92 90 99 98 97 97 100 99 100 98 96 95 92 95 65 60 68 67 54 40 40 38 38 37 40 36 34 45 53 60 32 32 47 46 26 33 30 36 65 42
94 94 93 92 92 91 97 98 97 99 100 97 97 94 94 94 89 76 48 48 55 42 36 34 33 30 27 27 27 27 36 38 46 58 40 70 32 16 26 40 36 30 44 65
91 90 87 84 84 80 93 94 84 92 98 67 74 68 71 58 49 52 46 39 34 37 37 48 40 31 27 24 23 24 24 35 60 63 44 35 22 23 56 48 42 72 97 78
87 86 84 83 80 67 57 54 50 40 72 47 35 42 41 47 45 42 42 36 38 39 46 62 60 34 22 22 17 18 22 42 62 58 76 66 29 18 30 27 39 85 96 96
84 79 76 72 66 60 46 58 68 34 69 33 34 35 39 32 33 40 36 48 48 39 64 70 52 40 32 41 34 29 28 41 78 77 85 51 18 39 30 53 76 88 89 97
76 72 72 72 68 65 48 64 57 46 41 40 43 37 33 33 32 47 38 44 46 56 74 59 51 44 31 41 36 28 30 41 50 49 67 63 39 39 77 81 81 78 96 96
77 73 69 65 60 56 51 48 44 37 31 41 38 33 30 27 24 29 42 38 41 45 60 60 53 56 44 41 54 23 39 38 53 52 62 48 35 88 54 64 100 98 98 95
80 73 69 66 66 64 50 40 36 30 30 30 26 29 29 30 31 28 45 31 29 36 38 62 55 54 30 48 36 40 31 26 42 47 31 49 51 40 50 88 97 86 84 68
79 76 71 67 66 62 52 38 39 32 27 61 38 24 28 28 29 32 33 33 37 38 36 49 57 53 37 55 47 44 35 36 48 68 52 42 43 64 83 87 75 82 61 60
78 77 76 73 70 63 50 46 43 40 48 70 38 34 36 33 33 35 36 39 42 37 47 62 59 38 47 39 42 41 25 46 69 71 44 68 56 53 68 83 93 70 63 68
77 74 77 78 74 76 39 90 43 43 44 72 58 33 37 37 39 41 43 42 44 42 51 54 39 37 58 73 51 31 26 26 28 43 35 45 60 61 71 88 62 59 56 66
78 75 78 76 69 50 50 57 50 63 46 68 53 28 31 34 38 46 49 47 45 44 66 60 46 43 75 73 61 37 32 31 49 65 83 83 76 85 58 57 53 53 49 58
79 79 73 68 71 75 55 54 67 66 48 37 62 42 41 46 59 88 64 71 67 76 64 59 56 52 70 75 38 33 34 48 72 70 78 96 76 59 54 56 54 56 56 57
78 74 70 55 63 50 53 80 77 55 61 76 61 60 86 55 64 73 93 93 94 61 82 66 64 66 81 46 40 39 79 77 68 60 61 66 62 60 58 59 60 67 69 67
76 66 70 100 62 78 75 79 77 77 73 64 65 42 68 54 70 82 89 83 84 92 64 56 76 59 40 35 41 53 60 60 60 69 71 65 65 68 65 66 61 62 69 69
51 65 75 54 74 70 76 88 82 75 76 53 46 46 68 61 83 90 66 81 75 82 93 77 74 66 97 53 54 52 55 61 60 60 62 63 64 64 64 61 60 60 61 64
63 61 63 74 77 77 80 73 60 58 47 44 48 55 66 70 66 81 66 75 73 74 75 80 74 78 54 52 54 56 58 59 60 56 55 57 52 53 54 50 52 55 59 77
66 66 71 80 78 87 84 82 60 72 59 61 74 84 65 93 83 80 70 90 79 54 84 64 77 67 63 65 74 64 58 57 56 57 54 55 50 48 53 57 59 74 79 86
78 77 81 83 89 71 64 60 65 70 66 63 65 71 66 64 78 72 88 62 61 78 66 64 96 86 77 70 74 63 62 68 69 63 70 69 80 83 86 100 96 90 99 100
76 71 82 82 61 64 69 69 68 57 52 60 68 65 69 74 84 68 64 76 73 52 70 93 89 94 92 92 92 77 77 92 83 76 77 100 99 93 92 99 98 77 84 85
66 62 77 68 80 95 90 87 85 58 62 62 65 74 77 75 60 61 70 51 52 85 88 78 74 77 76 77 80 85 83 77 71 66 61 61 86 83 68 76 80 100 97 98
60 78 71 84 82 87 90 81 72 53 64 85 66 77 59 56 64 57 56 89 95 93 89 82 88 84 84 83 84 89 85 68 61 60 59 62 61 61 53 52 58 59 53 91